Stinnett, TX

8:37 PM CST on February 24, 2017 (GMT -0600)
Pampa / Mesa Vista

Weather History for KBPC - April, 2013

Change the Weather History Date:

Monday, April 1, 2013

  Actual Average (KBGD) Record (KBGD)
Temperature  
Mean Temperature 48 °F -  
Max Temperature 64 °F 65 °F 93 °F (2012)
Min Temperature 33 °F 40 °F 27 °F (1970)
Degree Days  
Heating Degree Days 16    
Moisture  
Dew Point 38 °F    
Average Humidity 71    
Maximum Humidity 93    
Minimum Humidity 48    
Precipitation  
Precipitation 0.00 in - - ()
Sea Level Pressure  
Sea Level Pressure 30.06 in    
Wind  
Wind Speed 7 mph (NE)    
Max Wind Speed 24 mph    
Max Gust Speed 29 mph    
Visibility 10 miles    
Events      
Averages and records for this station are not official NWS values.
T = Trace of Precipitation, MM = Missing Value Source: NWS Daily Summary

Daily Weather History Graph

Daily Weather History Graph

Search for Another Location

Airport or City:

Trip Planner

Search our weather history database for the weather conditions in past years. The results will help you decide how hot, cold, wet, or windy it might be!

Date:

Astronomy

Apr. 01, 2013 Rise Set
Actual Time 7:30 AM CDT 8:06 PM CDT
Civil Twilight 7:04 AM CDT 8:32 PM CDT
Nautical Twilight 6:33 AM CDT 9:02 PM CDT
Astronomical Twilight 6:02 AM CDT 9:33 PM CDT
Moon 1:07 AM CDT (4/1) 11:27 AM CDT (4/1)
Length of Visible Light 13h 27m
Length of Day
12h 36m
Waning Gibbous, 67% of the Moon is Illuminated
Apr 1
Waning Gibbous
Apr 2
Last Quarter
Apr 10
New
Apr 18
First Quarter
Apr 25
Full

Hourly Weather History & Observations

Time (CDT) Temp. Windchill Dew Point Humidity Pressure Visibility Wind Dir Wind Speed Gust Speed Precip Events Conditions
12:15 AM 51.8 °F - 37.4 °F 58% 29.98 in 10.0 mi Calm Calm - N/A   Clear
12:35 AM 48.2 °F - 37.4 °F 66% 29.98 in 10.0 mi Calm Calm - N/A   Clear
12:55 AM 51.8 °F - 37.4 °F 58% 29.98 in 10.0 mi Calm Calm - N/A   Clear
1:15 AM 50.0 °F - 37.4 °F 62% 29.98 in 10.0 mi Calm Calm - N/A   Clear
1:35 AM 51.8 °F - 37.4 °F 58% 29.98 in 10.0 mi Calm Calm - N/A   Clear
1:55 AM 53.6 °F - 37.4 °F 54% 29.98 in 10.0 mi Calm Calm - N/A   Clear
2:15 AM 53.6 °F - 37.4 °F 54% 29.98 in 10.0 mi Calm Calm - N/A   Clear
2:35 AM 53.6 °F - 37.4 °F 54% 29.98 in 10.0 mi South 3.5 mph - N/A   Clear
2:55 AM 51.8 °F - 39.2 °F 62% 29.98 in 10.0 mi SSW 6.9 mph - N/A   Clear
3:15 AM 51.8 °F - 39.2 °F 62% 29.98 in 10.0 mi South 8.1 mph - N/A   Clear
3:35 AM 51.8 °F - 41.0 °F 67% 29.98 in 10.0 mi South 6.9 mph - N/A   Clear
3:55 AM 50.0 °F - 41.0 °F 71% 29.98 in 10.0 mi South 6.9 mph - N/A   Clear
4:15 AM 50.0 °F - 41.0 °F 71% 29.98 in 10.0 mi South 8.1 mph - N/A   Clear
4:35 AM 50.0 °F - 41.0 °F 71% 29.99 in 10.0 mi South 9.2 mph - N/A   Clear
4:55 AM 46.4 °F 45.2 °F 41.0 °F 81% 29.99 in 10.0 mi South 3.5 mph - N/A   Clear
5:15 AM 50.0 °F - 41.0 °F 71% 29.99 in 10.0 mi Calm Calm - N/A   Scattered Clouds
5:35 AM 50.0 °F - 41.0 °F 71% 29.99 in 10.0 mi South 3.5 mph - N/A   Scattered Clouds
5:55 AM 50.0 °F - 41.0 °F 71% 29.99 in 10.0 mi SSE 6.9 mph - N/A   Scattered Clouds
6:15 AM 50.0 °F - 42.8 °F 76% 30.00 in 10.0 mi SSW 3.5 mph - N/A   Scattered Clouds
6:35 AM 50.0 °F - 41.0 °F 71% 30.00 in 10.0 mi Calm Calm - N/A   Clear
6:55 AM 50.0 °F - 41.0 °F 71% 30.00 in 10.0 mi WSW 3.5 mph - N/A   Clear
7:15 AM 46.4 °F 45.2 °F 41.0 °F 81% 30.01 in 10.0 mi North 3.5 mph - N/A   Clear
7:35 AM 46.4 °F - 41.0 °F 81% 30.01 in 10.0 mi Calm Calm - N/A   Scattered Clouds
7:55 AM 50.0 °F - 42.8 °F 76% 30.01 in 10.0 mi Calm Calm - N/A   Scattered Clouds
8:15 AM 50.0 °F - 42.8 °F 76% 30.03 in 10.0 mi WNW 4.6 mph - N/A   Clear
8:35 AM 50.0 °F - 42.8 °F 76% 30.05 in 10.0 mi NW 5.8 mph - N/A   Clear
8:55 AM 51.8 °F - 42.8 °F 71% 30.06 in 10.0 mi West 6.9 mph - N/A   Clear
9:15 AM 55.4 °F - 42.8 °F 63% 30.05 in 10.0 mi SW 10.4 mph - N/A   Clear
9:35 AM 57.2 °F - 44.6 °F 63% 30.07 in 10.0 mi WSW 12.7 mph - N/A   Clear
9:55 AM 57.2 °F - 42.8 °F 59% 30.07 in 10.0 mi SW 10.4 mph 21.9 mph N/A   Scattered Clouds
10:15 AM 59.0 °F - 42.8 °F 55% 30.07 in 10.0 mi SW 8.1 mph - N/A   Scattered Clouds
10:35 AM 60.8 °F - 42.8 °F 52% 30.08 in 10.0 mi South 9.2 mph - N/A   Clear
10:55 AM 60.8 °F - 42.8 °F 52% 30.09 in 10.0 mi WSW 6.9 mph - N/A   Mostly Cloudy
11:15 AM 62.6 °F - 44.6 °F 52% 30.08 in 10.0 mi West 6.9 mph - N/A   Mostly Cloudy
11:35 AM 60.8 °F - 42.8 °F 52% 30.09 in 10.0 mi West 3.5 mph - N/A   Mostly Cloudy
11:55 AM 60.8 °F - 42.8 °F 52% 30.08 in 10.0 mi Calm Calm - N/A   Overcast
12:15 PM 60.8 °F - 42.8 °F 52% 30.09 in 10.0 mi Calm Calm - N/A   Overcast
12:35 PM 62.6 °F - 42.8 °F 48% 30.08 in 10.0 mi SW 4.6 mph - N/A   Overcast
12:55 PM 64.4 °F - 44.6 °F 49% 30.08 in 10.0 mi ENE 10.4 mph - N/A   Overcast
1:15 PM 57.2 °F - 42.8 °F 59% 30.08 in 10.0 mi NNE 24.2 mph - N/A   Overcast
1:35 PM 53.6 °F - 41.0 °F 62% 30.09 in 10.0 mi NE 21.9 mph 28.8 mph N/A   Mostly Cloudy
1:55 PM 51.8 °F - 41.0 °F 67% 30.10 in 10.0 mi NNE 21.9 mph 25.3 mph N/A   Overcast
2:15 PM 48.2 °F - 39.2 °F 71% 30.11 in 10.0 mi NE 20.7 mph 24.2 mph N/A   Overcast
2:35 PM 46.4 °F 39.8 °F 37.4 °F 71% 30.11 in 10.0 mi ENE 16.1 mph 24.2 mph N/A   Overcast
2:55 PM 46.4 °F 39.2 °F 37.4 °F 71% 30.12 in 10.0 mi NE 18.4 mph 24.2 mph N/A   Overcast
3:15 PM 46.4 °F 39.2 °F 37.4 °F 71% 30.12 in 10.0 mi NNE 18.4 mph 23.0 mph N/A   Overcast
3:35 PM 44.6 °F 37.8 °F 37.4 °F 76% 30.10 in 10.0 mi NE 15.0 mph 21.9 mph N/A   Overcast
3:55 PM 44.6 °F 36.4 °F 35.6 °F 71% 30.10 in 10.0 mi NE 20.7 mph - N/A   Overcast
4:15 PM 42.8 °F 34.8 °F 35.6 °F 76% 30.10 in 10.0 mi NE 17.3 mph 23.0 mph N/A   Overcast
4:35 PM 41.0 °F 32.8 °F 35.6 °F 81% 30.09 in 10.0 mi NNE 16.1 mph 25.3 mph N/A   Overcast
4:55 PM 41.0 °F 32.2 °F 33.8 °F 76% 30.09 in 10.0 mi NNE 18.4 mph 23.0 mph N/A   Overcast
5:15 PM 39.2 °F 29.8 °F 33.8 °F 81% 30.11 in 10.0 mi NNE 18.4 mph - N/A   Overcast
5:35 PM 37.4 °F 27.8 °F 33.8 °F 87% 30.09 in 10.0 mi NE 17.3 mph 23.0 mph N/A   Overcast
5:55 PM 37.4 °F 27.5 °F 33.8 °F 87% 30.09 in 10.0 mi NE 18.4 mph - N/A   Overcast
6:15 PM 37.4 °F 28.2 °F 33.8 °F 87% 30.09 in 10.0 mi NE 16.1 mph 21.9 mph N/A   Overcast
6:35 PM 37.4 °F 28.9 °F 32.0 °F 81% 30.09 in 10.0 mi NE 13.8 mph 23.0 mph N/A   Overcast
6:55 PM 37.4 °F 27.8 °F 32.0 °F 81% 30.08 in 10.0 mi NE 17.3 mph 23.0 mph N/A   Overcast
7:15 PM 35.6 °F 25.5 °F 32.0 °F 87% 30.07 in 10.0 mi NE 17.3 mph - N/A   Overcast
7:35 PM 35.6 °F 25.9 °F 32.0 °F 87% 30.07 in 10.0 mi NE 16.1 mph 20.7 mph N/A   Overcast
8:15 PM 35.6 °F 26.6 °F 32.0 °F 87% 30.09 in 10.0 mi NE 13.8 mph - N/A   Overcast
8:35 PM 35.6 °F 26.6 °F 32.0 °F 87% 30.09 in 10.0 mi NE 13.8 mph - N/A   Overcast
9:15 PM 35.6 °F 26.6 °F 32.0 °F 87% 30.10 in 10.0 mi NE 13.8 mph 18.4 mph N/A   Overcast
9:35 PM 33.8 °F 24.3 °F 32.0 °F 93% 30.11 in 10.0 mi NE 13.8 mph - N/A   Overcast
9:55 PM 33.8 °F 24.3 °F 32.0 °F 93% 30.11 in 10.0 mi NE 13.8 mph 20.7 mph N/A   Overcast
10:15 PM 35.6 °F 27.1 °F 32.0 °F 87% 30.12 in 10.0 mi ENE 12.7 mph 16.1 mph N/A   Overcast
10:35 PM 35.6 °F 27.1 °F 32.0 °F 87% 30.13 in 10.0 mi NE 12.7 mph - N/A   Overcast
10:55 PM 35.6 °F 27.1 °F 32.0 °F 87% 30.13 in 10.0 mi NE 12.7 mph - N/A   Overcast
11:15 PM 35.6 °F 27.1 °F 32.0 °F 87% 30.14 in 10.0 mi NE 12.7 mph - N/A   Overcast
11:35 PM 35.6 °F 27.1 °F 32.0 °F 87% 30.14 in 10.0 mi NE 12.7 mph - N/A   Overcast
11:55 PM 35.6 °F 27.1 °F 32.0 °F 87% 30.14 in 10.0 mi NE 12.7 mph 16.1 mph N/A   Overcast